{"data":{"norad_id":44850,"intl_designator":"2019-088A","name":"COSMOS 2544 (759)","alt_names":[],"object_type":"PAYLOAD","status":"ACTIVE","operator":null,"country":"CIS","launch_date":"2019-12-11","launch_site_code":"PLMSC","launch_vehicle":null,"mission":null,"orbit_class":"UNKNOWN","rcs_meters":null,"size_class":null,"mass_kg":null,"dimensions":null,"purposes":["nav"],"wikipedia_slug":null,"has_3d_model":false,"image_url":null,"decayed_at":null,"tle_current":{"epoch":"2026-05-25T00:51:09.320256Z","epoch_age_seconds":72007,"freshness":"FRESH","line1":"1 44850U 19088A   26145.03552454 -.00000038  00000+0  00000+0 0  9993","line2":"2 44850  65.5540  74.5027 0013925 261.2351  98.5977  2.13101726 50220","mean_motion":2.13101726,"eccentricity":0.0013925,"inclination_deg":65.554,"raan_deg":74.5027,"arg_perigee_deg":261.2351,"mean_anomaly_deg":98.5977,"bstar":0,"rev_number":5022,"period_min":675.73361653579,"perigee_km":19094.389338048,"apogee_km":19165.429246973,"semimajor_km":25508.04629251,"source":"CELESTRAK","updated_at":"2026-05-25T13:38:23.895832Z"}}}